Temperature
-1 0 -0 -1 -1 -2 -2 -2 -2 -2 -2 -2 -3 -3 -3 -3 -4 -4 -4 -5 -5 -5 -5 -5 -5 -5 -5 -5 -5 -5 -4 -4 -4 -4 -4 -4 -4 -4 -4 -4 -4 -4 -3 -3
-1 -1 -1 -1 -2 -2 -2 -3 -3 -3 -3 -3 -3 -3 -4 -4 -4 -5 -5 -6 -6 -6 -6 -6 -6 -5 -5 -5 -5 -5 -5 -5 -5 -5 -5 -5 -5 -5 -5 -4 -4 -4 -4 -4
-1 -1 -2 -2 -3 -3 -3 -4 -4 -4 -4 -4 -4 -5 -5 -5 -6 -6 -6 -6 -7 -7 -7 -7 -6 -6 -6 -6 -6 -6 -5 -5 -5 -6 -6 -6 -5 -5 -5 -5 -5 -5 -5 -4
-2 -2 -2 -2 -3 -4 -4 -4 -5 -5 -5 -5 -5 -6 -6 -6 -6 -6 -7 -7 -7 -7 -7 -7 -7 -7 -6 -6 -6 -6 -6 -6 -6 -6 -6 -6 -6 -6 -6 -5 -5 -5 -5 -5
-2 -3 -2 -3 -4 -5 -5 -5 -6 -6 -6 -6 -6 -6 -6 -7 -7 -7 -8 -8 -8 -8 -8 -8 -7 -7 -7 -7 -7 -7 -7 -7 -7 -7 -7 -7 -7 -6 -6 -6 -6 -6 -5 -5
-3 -3 -3 -4 -6 -5 -5 -6 -6 -7 -7 -7 -7 -7 -7 -8 -8 -8 -8 -8 -8 -8 -8 -8 -8 -8 -8 -8 -8 -7 -7 -7 -7 -7 -7 -7 -7 -7 -7 -7 -6 -6 -6 -6
-4 -4 -4 -6 -6 -6 -5 -6 -7 -7 -8 -8 -8 -9 -9 -9 -9 -9 -9 -9 -9 -9 -9 -9 -9 -9 -9 -8 -8 -8 -8 -8 -8 -8 -8 -8 -8 -8 -7 -7 -7 -7 -6 -6
-5 -5 -5 -8 -7 -7 -8 -8 -8 -8 -8 -9 -9 -9 -10 -10 -10 -10 -9 -9 -9 -9 -9 -9 -9 -9 -9 -9 -9 -9 -8 -8 -8 -8 -8 -8 -8 -8 -8 -8 -8 -7 -7 -7
-6 -6 -7 -7 -8 -8 -8 -9 -9 -9 -9 -9 -10 -10 -10 -10 -10 -10 -10 -10 -10 -10 -10 -9 -10 -10 -10 -9 -9 -9 -9 -9 -9 -8 -8 -8 -8 -8 -8 -8 -8 -8 -8 -8
-7 -7 -7 -7 -8 -8 -9 -9 -9 -9 -10 -10 -10 -10 -11 -11 -11 -11 -11 -11 -10 -10 -10 -10 -10 -10 -10 -10 -10 -9 -9 -9 -9 -9 -9 -9 -9 -9 -9 -9 -9 -9 -9 -8
-8 -8 -8 -8 -8 -9 -9 -10 -10 -10 -10 -10 -11 -11 -11 -11 -11 -11 -11 -11 -11 -11 -11 -11 -11 -10 -10 -10 -10 -10 -10 -10 -9 -9 -9 -9 -9 -9 -9 -9 -9 -9 -9 -9
-9 -9 -9 -9 -9 -10 -10 -10 -10 -11 -11 -11 -11 -11 -12 -12 -12 -12 -12 -12 -12 -11 -11 -11 -11 -11 -11 -11 -10 -10 -10 -10 -10 -10 -10 -10 -10 -9 -9 -10 -10 -10 -9 -9
-9 -9 -9 -9 -10 -10 -10 -11 -11 -11 -11 -11 -12 -12 -12 -12 -12 -12 -12 -12 -12 -12 -12 -12 -11 -11 -11 -11 -11 -11 -11 -11 -10 -10 -10 -10 -10 -10 -10 -9 -10 -10 -10 -10
-10 -10 -10 -10 -10 -11 -11 -11 -11 -11 -12 -12 -12 -12 -12 -12 -12 -12 -13 -13 -13 -12 -12 -12 -12 -12 -12 -11 -11 -11 -11 -11 -11 -11 -11 -11 -11 -11 -11 -11 -10 -10 -10 -10
-10 -10 -10 -11 -11 -11 -11 -11 -12 -12 -12 -12 -12 -13 -13 -13 -13 -13 -13 -13 -13 -13 -12 -12 -12 -12 -12 -12 -12 -12 -12 -12 -12 -12 -12 -12 -11 -11 -11 -11 -11 -11 -11 -10
-11 -11 -11 -11 -11 -12 -12 -12 -12 -12 -12 -13 -13 -13 -13 -13 -13 -13 -13 -13 -13 -13 -13 -13 -13 -13 -12 -12 -12 -12 -12 -12 -12 -12 -12 -12 -12 -12 -12 -12 -12 -12 -12 -12
-11 -11 -11 -11 -12 -12 -12 -12 -12 -13 -13 -13 -13 -13 -13 -13 -13 -13 -13 -13 -13 -13 -13 -13 -13 -13 -13 -13 -13 -13 -13 -13 -13 -13 -13 -13 -13 -13 -13 -13 -13 -13 -12 -12
-11 -11 -11 -11 -12 -12 -12 -13 -13 -13 -13 -13 -13 -13 -13 -13 -13 -13 -14 -13 -13 -13 -13 -13 -13 -13 -13 -13 -13 -13 -13 -13 -13 -13 -13 -13 -13 -13 -13 -13 -13 -13 -13 -13
-11 -11 -11 -12 -12 -12 -13 -13 -13 -13 -13 -13 -13 -14 -14 -14 -14 -14 -14 -14 -14 -14 -14 -13 -14 -14 -13 -14 -14 -14 -14 -14 -14 -14 -14 -14 -14 -14 -14 -14 -14 -14 -14 -14
-11 -11 -11 -12 -12 -12 -13 -13 -13 -13 -13 -14 -14 -14 -14 -14 -14 -14 -14 -14 -14 -14 -14 -14 -14 -14 -14 -14 -14 -14 -14 -14 -14 -14 -14 -14 -14 -14 -14 -14 -14 -14 -14 -14
-11 -11 -11 -12 -12 -12 -13 -13 -13 -13 -13 -14 -14 -14 -14 -14 -14 -14 -14 -14 -14 -14 -14 -14 -14 -14 -14 -14 -14 -14 -14 -14 -14 -15 -15 -15 -15 -14 -14 -14 -14 -14 -14 -14
-11 -11 -12 -12 -12 -12 -13 -13 -13 -13 -14 -14 -14 -14 -14 -14 -14 -14 -14 -15 -15 -15 -15 -15 -15 -15 -15 -15 -15 -15 -15 -15 -15 -15 -15 -15 -15 -15 -15 -15 -15 -15 -15 -15
-12 -12 -12 -12 -13 -13 -13 -13 -13 -14 -14 -14 -14 -14 -14 -14 -15 -15 -15 -15 -15 -15 -15 -15 -15 -15 -15 -15 -15 -15 -15 -15 -15 -15 -15 -15 -15 -15 -15 -15 -15 -15 -15 -15
-12 -12 -12 -13 -13 -13 -13 -13 -14 -14 -14 -14 -14 -14 -15 -15 -15 -15 -15 -15 -15 -15 -15 -15 -15 -15 -15 -15 -15 -15 -15 -15 -15 -15 -15 -15 -15 -15 -15 -15 -15 -15 -15 -15
-12 -12 -13 -13 -13 -13 -14 -14 -14 -14 -14 -14 -14 -15 -15 -15 -15 -15 -15 -15 -15 -15 -15 -15 -15 -15 -15 -15 -15 -15 -15 -15 -15 -16 -16 -15 -15 -15 -15 -15 -15 -15 -15 -15
-12 -13 -13 -13 -14 -14 -14 -14 -14 -14 -14 -14 -14 -15 -15 -15 -15 -15 -15 -15 -15 -15 -15 -15 -15 -15 -15 -15 -15 -16 -16 -16 -16 -16 -16 -16 -16 -16 -15 -15 -15 -15 -15 -15
-13 -13 -13 -14 -14 -14 -14 -14 -14 -15 -15 -15 -15 -15 -15 -15 -15 -15 -15 -15 -15 -15 -15 -15 -16 -16 -16 -16 -16 -16 -16 -16 -16 -16 -16 -16 -16 -16 -16 -16 -15 -15 -15 -15
Wind_Speed
9 9 6 6 6 4 7 7 7 7 6 7 6 6 6 6 5 5 6 7 7 7 7 6 5 4 4 4 4 4 4 4 5 4 4 4 4 4 4 4 5 5 5 5
7 7 5 7 6 5 6 6 7 8 8 6 6 5 6 6 5 6 7 7 7 8 8 8 7 6 5 5 5 4 4 5 4 4 4 4 4 4 4 4 4 5 5 5
5 3 4 5 4 4 3 2 3 6 6 6 7 7 6 7 6 7 8 8 8 8 8 8 7 7 6 6 5 5 4 4 4 4 4 4 4 4 4 4 4 5 5 5
4 4 5 2 2 1 1 2 2 3 5 6 7 7 5 5 6 7 8 9 8 8 8 8 7 7 6 5 5 5 5 4 4 4 4 4 4 4 4 4 4 4 5 5
3 4 6 1 2 2 2 3 3 4 7 8 7 6 3 5 6 7 8 8 8 7 7 7 7 6 6 5 5 5 5 5 5 4 4 4 4 4 4 4 4 4 5 4
3 3 4 2 4 5 1 3 5 6 7 8 8 5 5 8 9 9 9 8 8 7 7 7 7 6 5 6 5 6 6 6 5 4 4 4 4 4 3 3 4 4 5 4
4 4 3 3 5 3 0 4 6 6 6 7 5 4 6 9 9 9 9 9 8 7 7 7 7 6 5 6 6 6 6 6 5 4 4 4 3 3 3 3 3 3 4 4
2 3 4 4 3 1 3 5 6 7 6 6 6 6 7 8 9 9 9 9 8 7 7 7 6 6 6 7 7 6 6 5 5 4 4 3 2 2 2 2 3 3 3 4
2 3 1 2 0 2 4 5 6 6 7 6 6 7 8 7 8 8 9 9 8 7 7 8 7 6 6 7 7 6 5 5 5 4 4 3 2 2 2 2 2 3 3 3
2 3 2 1 2 5 6 5 6 6 6 5 5 6 7 7 7 8 8 8 8 7 8 8 8 8 7 7 7 6 6 5 5 4 4 3 3 2 2 2 2 3 3 3
3 4 5 3 4 6 7 7 6 6 6 5 4 6 6 7 7 8 8 8 8 7 7 8 8 8 8 8 7 6 6 5 5 4 4 3 3 2 2 2 2 2 2 2
3 3 3 6 6 7 7 7 6 6 6 6 5 5 6 7 7 7 8 8 8 8 8 8 8 8 8 8 7 6 6 6 5 4 4 4 4 4 5 5 6 6 6 4
3 4 4 6 6 6 5 6 6 5 5 6 5 5 5 6 7 7 8 8 8 8 8 8 8 8 9 8 7 6 6 5 5 4 4 4 4 4 4 6 7 7 7 7
2 3 4 4 5 6 6 5 5 5 5 5 5 5 5 6 7 8 8 8 8 8 8 8 8 8 9 8 8 7 6 6 6 4 4 4 3 3 3 4 4 5 6 8
4 3 4 5 5 5 5 5 5 5 6 6 5 5 6 6 7 7 8 8 8 8 8 8 8 9 9 8 8 7 5 4 4 4 4 3 3 3 3 4 3 4 4 6
5 4 4 4 5 5 5 5 5 6 6 6 6 6 6 6 6 7 7 7 8 8 9 8 8 9 9 8 7 6 5 8 6 4 4 4 4 4 4 4 4 4 4 5
3 4 5 5 6 5 5 4 4 5 6 6 7 7 6 6 7 7 7 7 7 7 7 7 8 8 8 7 6 5 4 5 8 5 4 4 4 4 4 4 4 4 4 6
3 4 4 4 4 5 5 5 4 5 5 6 6 6 6 6 7 8 8 8 8 7 7 7 7 8 7 7 5 4 4 4 4 4 4 4 4 3 3 3 4 4 4 5
3 3 3 3 3 3 4 4 4 4 5 5 5 6 6 6 6 7 7 7 8 8 8 8 12 8 6 7 7 4 4 4 4 4 4 5 5 4 3 3 3 3 4 4
3 3 3 3 3 3 3 4 4 4 4 4 5 5 6 6 6 7 7 6 5 6 7 9 8 6 6 7 8 4 4 4 4 4 4 3 4 3 3 4 4 4 4 4
3 3 3 3 4 4 3 3 3 4 5 4 4 5 6 7 6 6 6 7 6 7 8 11 7 5 5 6 7 4 4 4 4 4 4 3 4 4 4 4 4 4 4 4
3 2 3 3 3 4 4 3 3 4 5 5 5 5 6 6 7 6 5 5 7 11 8 6 5 8 9 8 4 4 4 4 4 3 3 3 3 4 4 4 4 4 4 4
2 2 3 3 3 4 4 4 3 3 4 5 5 5 6 6 5 5 7 6 6 11 8 6 9 12 12 6 4 4 4 4 4 3 3 3 3 4 4 4 4 4 4 4
2 2 2 2 2 3 4 4 4 4 4 5 5 5 5 5 5 4 4 10 12 12 7 10 13 13 11 5 4 3 3 4 4 4 4 4 3 3 4 4 4 4 4 5
2 2 2 2 2 3 4 4 4 4 4 4 5 5 4 4 5 6 6 7 11 11 7 10 13 12 7 4 4 4 4 4 4 4 3 4 4 4 4 4 4 5 5 5
2 2 2 3 3 3 3 3 3 4 4 5 5 5 4 4 5 5 5 6 8 10 7 6 7 8 5 4 4 4 4 5 6 5 4 4 5 5 5 5 6 5 5 5
2 2 2 2 2 2 2 3 4 4 4 5 6 5 5 5 5 6 6 6 6 6 6 5 5 5 5 5 5 5 5 5 5 5 5 5 5 5 6 6 6 6 6 6
Wind_Direction
267 277 274 263 257 226 213 225 241 270 279 302 328 331 336 336 342 350 352 350 346 343 338 333 331 324 318 315 313 306 300 295 288 293 293 295 294 288 281 274 273 271 267 262
275 256 258 273 274 250 237 241 253 272 283 306 324 333 335 335 338 340 337 339 340 338 335 331 328 320 318 317 313 305 296 293 296 297 298 297 295 292 286 279 276 272 266 261
268 280 302 277 271 231 224 234 237 258 279 327 335 336 334 333 337 333 331 331 334 331 326 322 320 318 312 309 310 305 297 296 297 296 295 293 296 296 291 285 279 273 269 266
284 310 263 240 58 94 208 269 264 282 311 326 318 316 323 342 339 337 336 333 326 324 323 320 319 320 313 309 308 309 310 304 303 300 298 297 295 290 291 291 285 279 278 277
270 277 267 231 19 11 283 293 354 330 322 325 327 320 331 9 360 343 332 326 321 320 319 320 322 323 324 320 317 319 317 310 303 297 294 293 291 294 296 294 290 284 282 278
266 272 272 303 329 329 294 263 5 351 327 324 334 325 320 346 345 338 334 331 328 326 328 329 327 329 328 323 327 324 319 312 305 298 291 287 286 291 296 292 290 293 292 289
255 255 265 347 329 350 344 292 332 332 324 321 317 295 307 325 330 332 331 330 331 333 335 333 332 334 330 328 325 321 320 319 317 309 298 287 283 290 296 296 301 300 300 302
253 248 274 1 29 36 286 323 330 326 325 322 316 314 322 327 331 336 336 339 341 341 341 341 343 342 338 332 327 327 327 327 326 324 321 316 296 296 300 299 302 304 309 312
220 228 350 89 80 342 344 323 320 322 321 320 317 319 325 329 334 339 341 342 344 346 346 347 348 348 341 332 334 338 345 342 339 340 338 339 335 322 322 319 316 314 316 317
278 291 313 353 6 355 344 329 325 327 326 323 315 320 328 333 338 341 342 344 347 352 352 345 346 346 338 334 340 349 351 347 347 349 349 352 349 342 336 330 332 329 331 330
272 305 326 342 355 342 338 341 341 340 337 334 334 333 335 337 340 342 343 344 348 350 349 346 348 348 344 346 350 354 352 347 348 349 344 347 346 343 340 333 341 338 327 317
264 310 301 302 326 338 337 337 339 340 341 346 347 339 340 340 341 343 343 345 348 350 350 346 348 348 347 348 351 352 348 347 347 351 353 354 354 353 352 352 344 340 340 341
271 313 298 297 319 342 337 336 341 343 339 340 347 347 344 340 342 346 346 348 347 346 344 344 348 348 348 347 348 353 348 343 343 349 352 354 358 356 352 354 356 357 357 354
317 326 311 325 327 334 335 339 349 350 351 352 350 348 346 345 345 347 345 342 341 345 346 347 348 346 345 345 347 349 348 347 347 347 349 350 353 354 354 354 356 358 355 359
334 323 289 303 323 337 348 354 355 350 350 350 350 346 345 342 339 337 336 339 343 348 348 348 348 344 344 345 347 345 346 346 344 342 343 348 353 356 359 359 0 358 360 1
323 323 316 320 328 339 349 351 344 335 337 339 341 340 339 337 333 333 338 345 346 343 340 342 341 336 337 339 341 342 344 347 351 347 346 349 354 357 359 360 1 2 2 359
330 327 330 326 325 327 330 330 326 324 330 333 331 333 336 337 337 338 340 342 337 330 330 336 334 332 334 337 339 338 340 343 348 349 348 348 350 354 356 357 359 359 355 353
274 281 288 289 299 310 320 326 326 326 325 324 331 336 337 336 332 330 331 333 333 333 337 338 336 339 342 342 342 339 338 340 343 344 345 347 352 355 357 356 356 356 351 351
313 311 311 313 311 308 312 318 322 324 326 332 333 328 322 320 323 326 329 333 336 335 337 338 340 346 340 339 344 338 339 342 345 343 344 345 349 352 353 351 350 350 348 349
331 333 336 336 336 327 319 320 325 324 325 328 328 325 325 325 327 327 327 324 321 318 323 331 334 333 334 336 343 344 344 343 341 341 343 347 346 346 346 344 343 341 342 344
323 330 334 332 329 327 321 322 321 318 322 325 322 318 317 318 321 323 326 324 325 330 332 332 336 330 331 336 342 345 343 340 338 337 338 340 339 339 339 338 335 333 335 336
313 313 315 319 322 324 326 322 314 313 320 323 322 319 319 321 323 319 307 306 318 329 335 328 328 330 335 339 341 338 336 334 333 334 334 333 330 328 328 329 326 324 324 326
298 296 303 310 310 311 315 313 308 309 310 312 313 314 313 311 314 317 317 318 322 327 332 327 329 332 336 343 340 336 334 331 328 326 321 319 319 318 318 319 317 317 317 317
292 300 305 308 309 308 309 311 310 308 301 301 302 304 308 313 312 304 302 318 327 327 329 328 333 335 339 347 337 333 328 324 319 316 316 316 314 312 309 309 309 309 308 306
293 289 288 297 297 296 303 313 315 311 309 309 309 310 308 304 304 311 314 317 322 327 327 328 332 335 341 335 330 323 318 310 307 309 307 307 305 305 303 302 301 300 299 299
284 284 282 283 287 295 303 307 310 311 316 317 317 317 314 312 309 309 311 313 317 323 325 322 324 326 329 325 320 315 310 310 311 309 304 301 299 297 296 296 295 293 292 292
296 297 298 303 303 301 305 306 304 305 309 307 308 311 313 314 314 313 313 315 317 318 318 319 321 322 320 318 315 312 308 305 302 298 297 294 292 290 290 289 289 290 290 289
Height
1487 1483 1484 1484 1485 1487 1489 1487 1487 1479 1477 1476 1475 1474 1472 1470 1468 1466 1464 1462 1460 1458 1456 1454 1452 1450 1449 1447 1446 1445 1444 1443 1442 1441 1440 1440 1439 1439 1439 1439 1439 1439 1439 1439
1487 1481 1482 1482 1481 1482 1484 1484 1483 1480 1479 1475 1474 1473 1471 1469 1467 1465 1463 1461 1458 1456 1453 1451 1449 1447 1445 1444 1442 1441 1440 1439 1438 1437 1436 1436 1435 1435 1435 1435 1435 1435 1434 1434
1486 1480 1481 1482 1481 1482 1483 1482 1482 1482 1480 1475 1474 1472 1471 1468 1466 1464 1462 1459 1456 1454 1451 1449 1446 1444 1442 1440 1439 1437 1436 1435 1434 1434 1433 1432 1432 1431 1431 1431 1430 1430 1430 1430
1487 1485 1486 1482 1480 1480 1481 1481 1480 1479 1477 1476 1474 1472 1469 1467 1465 1462 1460 1457 1454 1451 1448 1445 1443 1441 1439 1437 1435 1434 1432 1431 1431 1430 1429 1428 1428 1427 1427 1427 1426 1426 1425 1425
1488 1487 1481 1480 1482 1482 1483 1481 1480 1479 1477 1475 1472 1468 1466 1465 1464 1462 1459 1456 1452 1449 1446 1443 1440 1438 1436 1434 1432 1430 1429 1428 1427 1426 1425 1425 1424 1423 1423 1423 1422 1422 1421 1421
1489 1489 1487 1486 1484 1481 1482 1481 1480 1479 1477 1475 1472 1470 1467 1465 1462 1459 1456 1453 1450 1446 1443 1440 1437 1435 1433 1430 1428 1426 1425 1424 1424 1423 1422 1421 1421 1420 1420 1419 1419 1418 1418 1418
1493 1491 1487 1489 1485 1482 1486 1485 1482 1479 1477 1475 1473 1472 1468 1464 1461 1457 1454 1451 1447 1444 1440 1437 1435 1433 1430 1427 1425 1424 1422 1421 1420 1419 1419 1418 1417 1417 1416 1416 1415 1415 1414 1414
1493 1493 1493 1490 1486 1489 1488 1484 1481 1478 1476 1474 1471 1468 1465 1462 1459 1455 1452 1448 1445 1442 1438 1435 1433 1430 1427 1424 1423 1421 1419 1417 1417 1416 1416 1415 1415 1414 1413 1412 1412 1411 1411 1410
1495 1495 1491 1489 1488 1487 1485 1482 1479 1477 1474 1472 1469 1466 1463 1460 1457 1453 1450 1447 1443 1440 1436 1434 1431 1429 1425 1423 1421 1418 1416 1415 1414 1413 1413 1413 1412 1411 1410 1410 1409 1408 1408 1407
1493 1489 1488 1487 1486 1485 1483 1480 1478 1475 1473 1470 1467 1464 1461 1458 1455 1452 1449 1445 1442 1439 1435 1433 1430 1427 1425 1422 1419 1417 1415 1413 1412 1411 1411 1410 1410 1409 1409 1408 1407 1407 1406 1405
1493 1490 1487 1485 1485 1483 1481 1478 1476 1473 1471 1468 1466 1463 1460 1457 1454 1451 1448 1445 1442 1438 1435 1432 1429 1426 1424 1421 1419 1416 1414 1413 1412 1411 1410 1409 1408 1408 1407 1406 1406 1405 1404 1404
1493 1490 1490 1486 1484 1482 1479 1476 1474 1471 1469 1467 1465 1462 1459 1456 1453 1451 1447 1444 1441 1438 1434 1432 1429 1426 1424 1421 1419 1416 1414 1413 1411 1410 1409 1408 1406 1406 1405 1405 1404 1404 1403 1403
1491 1488 1487 1484 1482 1480 1478 1475 1473 1470 1468 1465 1463 1461 1458 1455 1453 1450 1447 1444 1441 1438 1435 1432 1429 1426 1424 1421 1419 1416 1414 1413 1411 1410 1408 1407 1406 1404 1403 1403 1403 1402 1401 1401
1488 1487 1484 1482 1480 1478 1476 1474 1471 1469 1467 1465 1463 1460 1457 1455 1452 1449 1446 1444 1441 1438 1435 1432 1429 1426 1424 1421 1419 1416 1415 1413 1411 1409 1408 1407 1405 1404 1403 1402 1400 1400 1400 1399
1486 1485 1484 1481 1479 1477 1475 1472 1470 1468 1465 1463 1461 1459 1456 1454 1451 1448 1446 1443 1440 1437 1434 1431 1428 1426 1424 1421 1418 1416 1414 1412 1411 1409 1408 1406 1405 1404 1403 1401 1400 1399 1399 1398
1484 1483 1481 1479 1477 1475 1473 1471 1469 1467 1465 1462 1460 1458 1456 1453 1450 1448 1445 1442 1439 1436 1433 1431 1428 1425 1423 1420 1418 1416 1414 1412 1411 1409 1408 1406 1404 1403 1402 1401 1400 1399 1398 1397
1483 1481 1479 1477 1475 1473 1472 1470 1468 1466 1464 1462 1459 1457 1455 1452 1449 1447 1444 1441 1439 1436 1433 1430 1428 1425 1423 1420 1418 1415 1413 1412 1410 1409 1407 1406 1404 1403 1402 1401 1399 1398 1397 1397
1482 1481 1479 1477 1474 1472 1471 1469 1467 1465 1463 1461 1459 1456 1454 1451 1448 1446 1443 1441 1438 1435 1432 1430 1427 1425 1422 1420 1417 1415 1413 1411 1410 1408 1406 1405 1404 1402 1401 1400 1399 1398 1397 1396
1480 1479 1477 1475 1474 1472 1470 1468 1466 1464 1462 1460 1458 1456 1453 1451 1448 1446 1443 1440 1437 1434 1431 1429 1427 1424 1421 1419 1417 1415 1413 1411 1409 1407 1406 1405 1403 1402 1401 1400 1399 1398 1397 1396
1478 1477 1475 1474 1472 1470 1469 1467 1465 1463 1461 1459 1457 1455 1452 1450 1447 1445 1442 1439 1436 1434 1431 1428 1426 1423 1421 1418 1416 1414 1412 1410 1408 1406 1405 1404 1402 1401 1400 1399 1398 1397 1396 1395
1477 1475 1474 1472 1471 1469 1468 1466 1464 1462 1460 1458 1456 1453 1451 1449 1446 1443 1440 1437 1435 1433 1430 1427 1425 1422 1420 1417 1415 1413 1411 1409 1408 1406 1405 1403 1402 1400 1399 1398 1397 1395 1394 1393
1475 1474 1472 1471 1469 1468 1466 1464 1463 1461 1458 1456 1454 1452 1449 1447 1444 1442 1440 1437 1434 1432 1429 1426 1423 1421 1419 1417 1414 1412 1410 1409 1407 1406 1404 1402 1401 1399 1398 1396 1395 1394 1393 1391
1474 1472 1471 1469 1468 1466 1464 1463 1461 1459 1457 1455 1453 1450 1448 1445 1443 1440 1437 1435 1433 1430 1427 1425 1423 1420 1418 1415 1413 1411 1409 1407 1406 1404 1403 1401 1399 1398 1396 1395 1393 1392 1391 1390
1472 1470 1469 1468 1466 1464 1462 1461 1459 1457 1455 1453 1451 1449 1446 1444 1441 1439 1437 1434 1431 1429 1426 1423 1421 1418 1416 1414 1412 1410 1408 1406 1404 1403 1401 1399 1398 1396 1394 1393 1392 1390 1389 1387
1470 1468 1467 1465 1464 1462 1461 1459 1457 1455 1453 1451 1449 1447 1445 1442 1440 1437 1435 1432 1430 1427 1424 1422 1419 1417 1414 1412 1410 1408 1406 1404 1402 1401 1399 1397 1396 1394 1392 1391 1389 1388 1386 1385
1468 1467 1465 1464 1462 1461 1459 1457 1455 1453 1451 1449 1447 1445 1443 1441 1438 1436 1433 1430 1428 1425 1422 1420 1417 1415 1412 1410 1408 1406 1404 1402 1400 1398 1396 1395 1393 1391 1390 1388 1387 1385 1383 1382
1466 1465 1463 1462 1460 1459 1457 1455 1453 1451 1449 1447 1445 1443 1441 1438 1436 1433 1431 1428 1426 1423 1420 1418 1415 1413 1410 1408 1406 1404 1402 1400 1397 1395 1394 1392 1390 1388 1387 1385 1383 1381 1380 1379